| time (UTC) | temp C | wind direction | speed KPH | gust KPH | rain 1hr cm | rain 24hr cm | rain mn cm | humidity % | barometer mb |
| 20260507033508 | 14 | 18 | 11.3 | 22.5 | 0.00 | 0.18 | 0.18 | 92 | 1015.7 |
| 20260507033026 | 14 | 326 | 9.7 | 20.9 | 0.00 | 0.18 | 0.18 | 92 | 1015.5 |
| 20260507032506 | 14 | 11 | 11.3 | 19.3 | 0.00 | 0.18 | 0.18 | 92 | 1015.5 |
| 20260507032010 | 14 | 43 | 9.7 | 17.7 | 0.00 | 0.18 | 0.18 | 92 | 1015.3 |
| 20260507031526 | 14 | 24 | 11.3 | 20.9 | 0.00 | 0.18 | 0.18 | 92 | 1015.4 |
| 20260507031010 | 14 | 343 | 9.7 | 20.9 | 0.00 | 0.18 | 0.18 | 93 | 1015.4 |
| 20260507030504 | 14 | 46 | 8.0 | 22.5 | 0.00 | 0.18 | 0.18 | 92 | 1015.6 |
| 20260507030012 | 14 | 18 | 8.0 | 22.5 | 0.00 | 0.18 | 0.18 | 92 | 1015.5 |
| 20260507025503 | 14 | 4 | 8.0 | 22.5 | 0.00 | 0.18 | 0.18 | 92 | 1015.4 |
| 20260507025006 | 14 | 357 | 8.0 | 19.3 | 0.00 | 0.18 | 0.18 | 92 | 1015.4 |
| 20260507024509 | 14 | 29 | 6.4 | 12.9 | 0.00 | 0.18 | 0.18 | 91 | 1015.6 |
| 20260507024005 | 14 | 7 | 6.4 | 12.9 | 0.00 | 0.18 | 0.18 | 91 | 1015.5 |
| 20260507023505 | 14 | 56 | 1.6 | 9.7 | 0.00 | 0.18 | 0.18 | 91 | 1015.5 |
| 20260507023011 | 14 | 45 | 3.2 | 12.9 | 0.00 | 0.18 | 0.18 | 91 | 1015.5 |
| 20260507022504 | 14 | 34 | 3.2 | 19.3 | 0.00 | 0.18 | 0.18 | 91 | 1015.4 |
| 20260507022003 | 14 | 34 | 4.8 | 19.3 | 0.00 | 0.18 | 0.18 | 91 | 1015.2 |
| 20260507021514 | 14 | 20 | 9.7 | 24.1 | 0.00 | 0.18 | 0.18 | 91 | 1015.0 |
| 20260507021007 | 14 | 21 | 9.7 | 24.1 | 0.00 | 0.18 | 0.18 | 91 | 1015.0 |
| 20260507020503 | 14 | 336 | 9.7 | 19.3 | 0.00 | 0.18 | 0.18 | 91 | 1015.0 |
| 20260507020010 | 14 | 25 | 9.7 | 19.3 | 0.00 | 0.18 | 0.18 | 90 | 1015.1 |
| 20260507015503 | 14 | 17 | 9.7 | 19.3 | 0.00 | 0.18 | 0.18 | 90 | 1015.0 |
| 20260507015003 | 14 | 5 | 6.4 | 19.3 | 0.00 | 0.18 | 0.18 | 90 | 1014.9 |
| 20260507014512 | 14 | 357 | 12.9 | 20.9 | 0.00 | 0.18 | 0.18 | 90 | 1015.1 |
| 20260507014004 | 14 | 349 | 11.3 | 20.9 | 0.00 | 0.18 | 0.18 | 90 | 1015.0 |
| 20260507013504 | 15 | 14 | 8.0 | 16.1 | 0.00 | 0.18 | 0.18 | 90 | 1014.7 |
| 20260507013011 | 15 | 12 | 6.4 | 14.5 | 0.00 | 0.18 | 0.18 | 90 | 1014.7 |
| 20260507012502 | 15 | 348 | 4.8 | 14.5 | 0.00 | 0.18 | 0.18 | 90 | 1014.5 |
| 20260507012004 | 15 | 358 | 6.4 | 12.9 | 0.00 | 0.18 | 0.18 | 90 | 1014.4 |
| 20260507011512 | 15 | 345 | 4.8 | 16.1 | 0.00 | 0.18 | 0.18 | 90 | 1014.2 |
| 20260507011003 | 15 | 23 | 4.8 | 16.1 | 0.00 | 0.18 | 0.18 | 90 | 1014.1 |
| 20260507010506 | 15 | 34 | 8.0 | 14.5 | 0.00 | 0.18 | 0.18 | 90 | 1014.0 |
| 20260507010006 | 15 | 355 | 8.0 | 16.1 | 0.00 | 0.18 | 0.18 | 89 | 1014.0 |
| 20260507005508 | 15 | 16 | 6.4 | 16.1 | 0.00 | 0.18 | 0.18 | 89 | 1014.0 |
| 20260507005003 | 15 | 25 | 8.0 | 14.5 | 0.00 | 0.18 | 0.18 | 89 | 1013.9 |
| 20260507004511 | 15 | 33 | 6.4 | 14.5 | 0.00 | 0.18 | 0.18 | 89 | 1013.8 |
| 20260507004004 | 15 | 345 | 9.7 | 17.7 | 0.00 | 0.18 | 0.18 | 89 | 1013.9 |
| 20260507003505 | 15 | 23 | 8.0 | 17.7 | 0.00 | 0.18 | 0.18 | 89 | 1013.8 |
| 20260507003019 | 15 | 8 | 6.4 | 14.5 | 0.00 | 0.18 | 0.18 | 89 | 1013.9 |
| 20260507002506 | 15 | 7 | 8.0 | 20.9 | 0.00 | 0.18 | 0.18 | 89 | 1013.7 |
| 20260507002007 | 15 | 347 | 6.4 | 20.9 | 0.00 | 0.18 | 0.18 | 89 | 1013.7 |
| 20260507001521 | 15 | 21 | 8.0 | 16.1 | 0.00 | 0.18 | 0.18 | 89 | 1013.8 |
| 20260507001008 | 15 | 4 | 6.4 | 17.7 | 0.00 | 0.18 | 0.18 | 89 | 1013.7 |
| 20260507000503 | 15 | 344 | 6.4 | 17.7 | 0.00 | 0.18 | 0.18 | 89 | 1013.7 |
| 20260507000015 | 15 | 343 | 9.7 | 20.9 | 0.00 | 0.18 | 0.18 | 88 | 1013.5 |
| 20260506235504 | 15 | 337 | 11.3 | 20.9 | 0.00 | 0.18 | 0.18 | 89 | 1013.4 |
| 20260506235003 | 15 | 3 | 6.4 | 16.1 | 0.00 | 0.18 | 0.18 | 89 | 1013.3 |
| 20260506234508 | 15 | 40 | 6.4 | 22.5 | 0.00 | 0.18 | 0.18 | 89 | 1013.1 |
| 20260506234003 | 15 | 356 | 9.7 | 22.5 | 0.00 | 0.18 | 0.18 | 89 | 1013.3 |
| 20260506233506 | 15 | 49 | 8.0 | 20.9 | 0.00 | 0.18 | 0.18 | 88 | 1013.2 |
| 20260506233012 | 15 | 5 | 6.4 | 20.9 | 0.00 | 0.18 | 0.18 | 89 | 1013.4 |
| 20260506232504 | 15 | 356 | 11.3 | 24.1 | 0.00 | 0.18 | 0.18 | 88 | 1013.4 |
| 20260506232007 | 15 | 6 | 8.0 | 25.7 | 0.00 | 0.18 | 0.18 | 89 | 1012.7 |
| 20260506231516 | 15 | 359 | 11.3 | 25.7 | 0.00 | 0.18 | 0.18 | 89 | 1013.3 |
| 20260506231003 | 15 | 333 | 9.7 | 20.9 | 0.00 | 0.18 | 0.18 | 88 | 1013.3 |
| 20260506230505 | 15 | 309 | 6.4 | 20.9 | 0.00 | 0.18 | 0.18 | 89 | 1013.2 |
| 20260506230015 | 16 | 18 | 9.7 | 17.7 | 0.00 | 0.18 | 0.18 | 87 | 1013.2 |
| 20260506225503 | 16 | 356 | 6.4 | 19.3 | 0.00 | 0.18 | 0.18 | 88 | 1013.1 |
| 20260506225007 | 16 | 23 | 11.3 | 20.9 | 0.00 | 0.18 | 0.18 | 87 | 1012.8 |
| 20260506224515 | 16 | 10 | 9.7 | 20.9 | 0.00 | 0.18 | 0.18 | 88 | 1013.0 |
| 20260506224007 | 16 | 28 | 11.3 | 20.9 | 0.00 | 0.18 | 0.18 | 87 | 1012.9 |
| 20260506223504 | 16 | 5 | 8.0 | 22.5 | 0.00 | 0.18 | 0.18 | 87 | 1013.0 |
| 20260506223010 | 16 | 344 | 8.0 | 22.5 | 0.00 | 0.18 | 0.18 | 87 | 1012.8 |
| 20260506222505 | 16 | 358 | 11.3 | 25.7 | 0.00 | 0.18 | 0.18 | 87 | 1013.0 |
| 20260506222008 | 16 | 340 | 11.3 | 25.7 | 0.00 | 0.18 | 0.18 | 87 | 1013.1 |
| 20260506221514 | 16 | 13 | 9.7 | 22.5 | 0.00 | 0.18 | 0.18 | 87 | 1013.0 |
| 20260506221006 | 16 | 340 | 9.7 | 25.7 | 0.00 | 0.18 | 0.18 | 86 | 1013.0 |
| 20260506220507 | 16 | 8 | 9.7 | 25.7 | 0.00 | 0.18 | 0.18 | 87 | 1013.1 |
| 20260506220016 | 16 | 345 | 9.7 | 22.5 | 0.00 | 0.18 | 0.18 | 86 | 1013.0 |
| 20260506215507 | 16 | 305 | 9.7 | 27.4 | 0.00 | 0.18 | 0.18 | 87 | 1012.8 |
| 20260506215006 | 16 | 15 | 12.9 | 27.4 | 0.00 | 0.18 | 0.18 | 86 | 1012.9 |
| 20260506214518 | 17 | 17 | 16.1 | 25.7 | 0.00 | 0.18 | 0.18 | 84 | 1012.8 |
| 20260506214010 | 17 | 24 | 12.9 | 22.5 | 0.00 | 0.18 | 0.18 | 83 | 1012.9 |
| 20260506213506 | 17 | 359 | 12.9 | 22.5 | 0.00 | 0.18 | 0.18 | 82 | 1012.7 |
| 20260506213015 | 18 | 37 | 9.7 | 29.0 | 0.00 | 0.18 | 0.18 | 82 | 1012.8 |
| 20260506212508 | 18 | 352 | 11.3 | 29.0 | 0.00 | 0.18 | 0.18 | 82 | 1012.9 |
| 20260506212015 | 18 | 356 | 9.7 | 22.5 | 0.00 | 0.18 | 0.18 | 82 | 1012.7 |
| 20260506211509 | 18 | 338 | 9.7 | 22.5 | 0.00 | 0.18 | 0.18 | 82 | 1012.8 |
| 20260506211007 | 18 | 347 | 9.7 | 22.5 | 0.00 | 0.18 | 0.18 | 81 | 1012.9 |
| 20260506210506 | 18 | 13 | 9.7 | 20.9 | 0.00 | 0.18 | 0.18 | 81 | 1013.1 |
| 20260506210021 | 18 | 336 | 8.0 | 20.9 | 0.00 | 0.18 | 0.18 | 81 | 1012.9 |
| 20260506205511 | 18 | 324 | 11.3 | 22.5 | 0.00 | 0.18 | 0.18 | 81 | 1012.8 |
| 20260506205006 | 18 | 1 | 9.7 | 22.5 | 0.00 | 0.18 | 0.18 | 81 | 1012.9 |
| 20260506204516 | 18 | 20 | 9.7 | 16.1 | 0.00 | 0.18 | 0.18 | 81 | 1012.8 |
| 20260506204005 | 19 | 316 | 9.7 | 24.1 | 0.00 | 0.18 | 0.18 | 80 | 1012.9 |
| 20260506203508 | 18 | 347 | 16.1 | 24.1 | 0.00 | 0.18 | 0.18 | 79 | 1013.0 |
| 20260506203025 | 19 | 328 | 9.7 | 20.9 | 0.00 | 0.18 | 0.18 | 79 | 1012.9 |
| 20260506202506 | 20 | 16 | 12.9 | 20.9 | 0.00 | 0.18 | 0.18 | 77 | 1012.9 |
| 20260506202009 | 21 | 328 | 9.7 | 24.1 | 0.00 | 0.18 | 0.18 | 76 | 1012.9 |
| 20260506201518 | 21 | 344 | 11.3 | 24.1 | 0.03 | 0.18 | 0.18 | 79 | 1013.0 |
| 20260506201009 | 21 | 333 | 12.9 | 24.1 | 0.03 | 0.18 | 0.18 | 75 | 1013.1 |
| 20260506200511 | 22 | 320 | 11.3 | 24.1 | 0.03 | 0.18 | 0.18 | 74 | 1013.1 |
| 20260506200013 | 22 | 348 | 9.7 | 19.3 | 0.03 | 0.18 | 0.18 | 77 | 1013.0 |
| 20260506195507 | 22 | 332 | 9.7 | 19.3 | 0.03 | 0.18 | 0.18 | 77 | 1013.0 |
| 20260506195006 | 22 | 36 | 12.9 | 19.3 | 0.03 | 0.18 | 0.18 | 76 | 1013.0 |
| 20260506194518 | 22 | 44 | 9.7 | 19.3 | 0.03 | 0.18 | 0.18 | 79 | 1013.0 |
| 20260506194009 | 22 | 336 | 9.7 | 20.9 | 0.03 | 0.18 | 0.18 | 79 | 1012.9 |
| 20260506193507 | 21 | 7 | 9.7 | 20.9 | 0.03 | 0.18 | 0.18 | 81 | 1013.1 |
| 20260506193018 | 22 | 328 | 8.0 | 22.5 | 0.03 | 0.18 | 0.18 | 81 | 1013.1 |
| 20260506192507 | 21 | 329 | 11.3 | 22.5 | 0.03 | 0.18 | 0.18 | 80 | 1013.1 |
| 20260506192008 | 22 | 306 | 8.0 | 20.9 | 0.03 | 0.18 | 0.18 | 82 | 1013.2 |
| 20260506191519 | 22 | 330 | 11.3 | 20.9 | 0.00 | 0.15 | 0.15 | 80 | 1013.2 |
| 20260506191007 | 22 | 312 | 8.0 | 20.9 | 0.00 | 0.15 | 0.15 | 82 | 1013.2 |
| 20260506190507 | 23 | 330 | 6.4 | 17.7 | 0.00 | 0.15 | 0.15 | 81 | 1013.3 |
| 20260506190019 | 23 | 339 | 4.8 | 12.9 | 0.00 | 0.15 | 0.15 | 82 | 1013.2 |
| 20260506185507 | 23 | 338 | 4.8 | 14.5 | 0.00 | 0.15 | 0.15 | 81 | 1013.2 |
| 20260506185006 | 24 | 346 | 6.4 | 14.5 | 0.00 | 0.15 | 0.15 | 80 | 1013.2 |
| 20260506184516 | 24 | 42 | 6.4 | 12.9 | 0.00 | 0.15 | 0.15 | 81 | 1013.0 |
| 20260506184006 | 23 | 42 | 4.8 | 12.9 | 0.00 | 0.15 | 0.15 | 82 | 1013.1 |
| 20260506183508 | 23 | 10 | 6.4 | 12.9 | 0.00 | 0.15 | 0.15 | 83 | 1013.1 |
| 20260506183021 | 23 | 344 | 6.4 | 14.5 | 0.00 | 0.15 | 0.15 | 84 | 1013.3 |
| 20260506182507 | 22 | 345 | 4.8 | 14.5 | 0.00 | 0.15 | 0.15 | 85 | 1013.3 |
| 20260506182007 | 22 | 345 | 8.0 | 14.5 | 0.00 | 0.15 | 0.15 | 86 | 1013.5 |
| 20260506181522 | 23 | 360 | 6.4 | 12.9 | 0.00 | 0.15 | 0.15 | 85 | 1013.3 |
| 20260506181008 | 23 | 331 | 1.6 | 8.0 | 0.00 | 0.15 | 0.15 | 87 | 1013.3 |
| 20260506180508 | 22 | 340 | 4.8 | 8.0 | 0.00 | 0.15 | 0.15 | 88 | 1013.3 |
| 20260506180025 | 22 | 8 | 1.6 | 9.7 | 0.00 | 0.15 | 0.15 | 91 | 1013.3 |
| 20260506175507 | 22 | 14 | 3.2 | 9.7 | 0.00 | 0.15 | 0.15 | 89 | 1013.5 |
| 20260506175002 | 21 | 25 | 1.6 | 11.3 | 0.00 | 0.15 | 0.15 | 90 | 1013.5 |
| 20260506174509 | 21 | 312 | 4.8 | 11.3 | 0.00 | 0.15 | 0.15 | 93 | 1013.4 |
| 20260506174006 | 20 | 340 | 3.2 | 4.8 | 0.00 | 0.15 | 0.15 | 92 | 1013.5 |
| 20260506173505 | 20 | 337 | 0.0 | 6.4 | 0.00 | 0.15 | 0.15 | 91 | 1013.5 |
| 20260506173015 | 20 | 356 | 3.2 | 9.7 | 0.00 | 0.15 | 0.15 | 92 | 1013.6 |
| 20260506172507 | 20 | 17 | 4.8 | 9.7 | 0.00 | 0.15 | 0.15 | 92 | 1013.4 |
| 20260506172009 | 20 | 318 | 3.2 | 6.4 | 0.00 | 0.15 | 0.15 | 93 | 1013.5 |
| 20260506171511 | 20 | 13 | 1.6 | 4.8 | 0.00 | 0.15 | 0.15 | 92 | 1013.3 |
| 20260506171003 | 20 | 14 | 1.6 | 4.8 | 0.00 | 0.15 | 0.15 | 92 | 1013.5 |
| 20260506170505 | 20 | 14 | 1.6 | 4.8 | 0.00 | 0.15 | 0.15 | 92 | 1013.3 |
| 20260506170004 | 20 | 323 | 3.2 | 4.8 | 0.00 | 0.15 | 0.15 | 92 | 1013.2 |
| 20260506165504 | 20 | 13 | 0.0 | 4.8 | 0.00 | 0.15 | 0.15 | 93 | 1013.1 |
| 20260506165003 | 19 | 13 | 0.0 | 8.0 | 0.00 | 0.15 | 0.15 | 94 | 1013.1 |
| 20260506164512 | 19 | 27 | 3.2 | 8.0 | 0.00 | 0.15 | 0.15 | 95 | 1013.3 |
| 20260506164009 | 19 | 333 | 1.6 | 4.8 | 0.03 | 0.15 | 0.15 | 95 | 1013.2 |
| 20260506163502 | 18 | 14 | 1.6 | 4.8 | 0.08 | 0.15 | 0.15 | 95 | 1013.1 |
| 20260506163012 | 18 | 6 | 0.0 | 8.0 | 0.08 | 0.15 | 0.15 | 95 | 1013.2 |
| 20260506162507 | 18 | 1 | 1.6 | 8.0 | 0.08 | 0.15 | 0.15 | 95 | 1013.2 |
| 20260506162013 | 18 | 21 | 4.8 | 9.7 | 0.08 | 0.15 | 0.15 | 95 | 1013.2 |
| 20260506161516 | 18 | 11 | 6.4 | 9.7 | 0.08 | 0.15 | 0.15 | 95 | 1013.1 |
| 20260506161007 | 17 | 341 | 6.4 | 12.9 | 0.08 | 0.15 | 0.15 | 95 | 1013.2 |
| 20260506160509 | 17 | 308 | 8.0 | 12.9 | 0.08 | 0.15 | 0.15 | 94 | 1013.2 |
| 20260506160003 | 17 | 21 | 6.4 | 16.1 | 0.08 | 0.15 | 0.15 | 94 | 1013.3 |
| 20260506155503 | 17 | 356 | 6.4 | 16.1 | 0.08 | 0.15 | 0.15 | 94 | 1013.3 |
| 20260506155004 | 18 | 358 | 8.0 | 17.7 | 0.08 | 0.15 | 0.15 | 94 | 1013.2 |
| 20260506154506 | 18 | 342 | 8.0 | 17.7 | 0.08 | 0.15 | 0.15 | 93 | 1013.1 |
| 20260506154004 | 18 | 319 | 8.0 | 17.7 | 0.05 | 0.13 | 0.13 | 92 | 1013.2 |
| 20260506153503 | 19 | 311 | 6.4 | 22.5 | 0.00 | 0.08 | 0.08 | 90 | 1013.2 |
| 20260506153009 | 20 | 341 | 9.7 | 22.5 | 0.00 | 0.08 | 0.08 | 89 | 1013.2 |
| 20260506152502 | 22 | 335 | 3.2 | 6.4 | 0.00 | 0.08 | 0.08 | 94 | 1013.0 |
| 20260506152005 | 22 | 25 | 0.0 | 3.2 | 0.00 | 0.08 | 0.08 | 95 | 1012.9 |
| 20260506151526 | 22 | 131 | 0.0 | 1.6 | 0.00 | 0.08 | 0.08 | 95 | 1012.8 |
| 20260506151009 | 22 | 131 | 0.0 | 3.2 | 0.03 | 0.08 | 0.08 | 95 | 1012.7 |
| 20260506150507 | 22 | 136 | 1.6 | 3.2 | 0.03 | 0.08 | 0.08 | 95 | 1012.5 |
| 20260506150018 | 22 | 180 | 1.6 | 3.2 | 0.03 | 0.08 | 0.08 | 95 | 1012.4 |
| 20260506145510 | 22 | 158 | 0.0 | 1.6 | 0.03 | 0.08 | 0.08 | 96 | 1012.4 |
| 20260506145010 | 22 | 158 | 0.0 | 3.2 | 0.05 | 0.08 | 0.08 | 96 | 1012.3 |
| 20260506144502 | 21 | 130 | 0.0 | 3.2 | 0.05 | 0.08 | 0.08 | 96 | 1012.3 |
| 20260506144006 | 21 | 146 | 0.0 | 4.8 | 0.05 | 0.08 | 0.08 | 96 | 1012.3 |
| 20260506143504 | 21 | 113 | 3.2 | 4.8 | 0.05 | 0.08 | 0.08 | 96 | 1012.3 |
| 20260506143008 | 21 | 106 | 3.2 | 3.2 | 0.05 | 0.08 | 0.08 | 96 | 1012.3 |
| 20260506142505 | 21 | 126 | 0.0 | 3.2 | 0.05 | 0.08 | 0.08 | 96 | 1012.3 |
| 20260506142005 | 21 | 149 | 0.0 | 4.8 | 0.05 | 0.08 | 0.08 | 96 | 1012.3 |
| 20260506141511 | 21 | 112 | 1.6 | 4.8 | 0.08 | 0.08 | 0.08 | 96 | 1012.2 |
| 20260506141006 | 21 | 99 | 0.0 | 3.2 | 0.05 | 0.05 | 0.05 | 96 | 1012.3 |
| 20260506140504 | 21 | 102 | 0.0 | 1.6 | 0.05 | 0.05 | 0.05 | 96 | 1012.3 |
| 20260506140022 | 21 | 127 | 0.0 | 1.6 | 0.05 | 0.05 | 0.05 | 96 | 1012.3 |
| 20260506135507 | 21 | 127 | 0.0 | 3.2 | 0.05 | 0.05 | 0.05 | 96 | 1012.1 |
| 20260506135006 | 21 | 127 | 0.0 | 3.2 | 0.03 | 0.03 | 0.03 | 96 | 1012.1 |
| 20260506134522 | 21 | 6 | 0.0 | 3.2 | 0.03 | 0.03 | 0.03 | 96 | 1012.0 |
| 20260506134010 | 21 | 6 | 0.0 | 3.2 | 0.03 | 0.03 | 0.03 | 96 | 1011.8 |
| 20260506133507 | 21 | 134 | 0.0 | 3.2 | 0.03 | 0.03 | 0.03 | 96 | 1011.3 |
| 20260506133004 | 21 | 95 | 1.6 | 3.2 | 0.03 | 0.03 | 0.03 | 96 | 1010.9 |
| 20260506132501 | 21 | 124 | 0.0 | 6.4 | 0.03 | 0.03 | 0.03 | 96 | 1010.7 |
| 20260506132003 | 21 | 125 | 1.6 | 6.4 | 0.03 | 0.03 | 0.03 | 96 | 1010.7 |
| 20260506131516 | 21 | 109 | 1.6 | 3.2 | 0.00 | 0.00 | 0.00 | 96 | 1010.8 |
| 20260506131006 | 21 | 158 | 0.0 | 0.0 | 0.00 | 0.00 | 0.00 | 96 | 1010.7 |
| 20260506130503 | 21 | 158 | 0.0 | 0.0 | 0.00 | 0.00 | 0.00 | 96 | 1010.7 |
| 20260506130016 | 21 | 158 | 0.0 | 1.6 | 0.00 | 0.00 | 0.00 | 96 | 1010.7 |
| 20260506125505 | 21 | 158 | 0.0 | 3.2 | 0.00 | 0.00 | 0.00 | 96 | 1010.7 |
| 20260506125007 | 21 | 158 | 0.0 | 3.2 | 0.00 | 0.00 | 0.00 | 96 | 1010.7 |
| 20260506124519 | 21 | 238 | 0.0 | 3.2 | 0.00 | 0.00 | 0.00 | 96 | 1010.6 |
| 20260506124007 | 21 | 210 | 0.0 | 3.2 | 0.00 | 0.00 | 0.00 | 96 | 1010.6 |
| 20260506123507 | 21 | 157 | 1.6 | 4.8 | 0.00 | 0.00 | 0.00 | 96 | 1010.4 |
| 20260506123023 | 21 | 110 | 1.6 | 4.8 | 0.00 | 0.00 | 0.00 | 96 | 1010.3 |
| 20260506122507 | 21 | 135 | 1.6 | 6.4 | 0.00 | 0.00 | 0.00 | 96 | 1010.3 |
| 20260506122011 | 21 | 174 | 1.6 | 6.4 | 0.00 | 0.00 | 0.00 | 96 | 1010.3 |
| 20260506121504 | 21 | 155 | 0.0 | 4.8 | 0.00 | 0.00 | 0.00 | 96 | 1010.2 |
| 20260506121004 | 21 | 191 | 0.0 | 6.4 | 0.00 | 0.00 | 0.00 | 96 | 1010.2 |
| 20260506120503 | 21 | 154 | 1.6 | 6.4 | 0.00 | 0.00 | 0.00 | 96 | 1010.2 |
| 20260506120018 | 21 | 146 | 0.0 | 4.8 | 0.00 | 0.00 | 0.00 | 96 | 1010.2 |
| 20260506115503 | 21 | 146 | 0.0 | 4.8 | 0.00 | 0.00 | 0.00 | 96 | 1010.2 |
| 20260506115006 | 21 | 140 | 1.6 | 4.8 | 0.00 | 0.00 | 0.00 | 96 | 1010.2 |
| 20260506114515 | 21 | 184 | 0.0 | 4.8 | 0.00 | 0.00 | 0.00 | 95 | 1010.3 |
| 20260506114007 | 21 | 188 | 0.0 | 4.8 | 0.00 | 0.00 | 0.00 | 95 | 1010.4 |
| 20260506113508 | 21 | 148 | 1.6 | 3.2 | 0.00 | 0.00 | 0.00 | 95 | 1010.4 |
| 20260506113024 | 21 | 244 | 0.0 | 6.4 | 0.00 | 0.00 | 0.00 | 95 | 1010.4 |
| 20260506112509 | 21 | 165 | 1.6 | 6.4 | 0.00 | 0.00 | 0.00 | 95 | 1010.3 |
| 20260506112008 | 21 | 226 | 1.6 | 6.4 | 0.00 | 0.00 | 0.00 | 95 | 1010.3 |
| 20260506111526 | 21 | 160 | 1.6 | 4.8 | 0.00 | 0.00 | 0.00 | 95 | 1010.4 |
| 20260506111007 | 21 | 169 | 1.6 | 6.4 | 0.00 | 0.00 | 0.00 | 95 | 1010.4 |
| 20260506110513 | 21 | 162 | 1.6 | 8.0 | 0.00 | 0.00 | 0.00 | 95 | 1010.4 |
| 20260506110012 | 21 | 167 | 3.2 | 9.7 | 0.00 | 0.00 | 0.00 | 95 | 1010.2 |
| 20260506105503 | 21 | 205 | 1.6 | 11.3 | 0.00 | 0.00 | 0.00 | 95 | 1010.2 |
| 20260506105007 | 21 | 160 | 4.8 | 11.3 | 0.00 | 0.00 | 0.00 | 95 | 1010.4 |
| 20260506104512 | 21 | 238 | 3.2 | 9.7 | 0.00 | 0.00 | 0.00 | 95 | 1010.5 |
| 20260506104007 | 21 | 244 | 0.0 | 8.0 | 0.00 | 0.00 | 0.00 | 95 | 1010.7 |
| 20260506103506 | 21 | 178 | 3.2 | 8.0 | 0.00 | 0.00 | 0.00 | 95 | 1010.7 |
| 20260506103018 | 21 | 199 | 3.2 | 8.0 | 0.00 | 0.00 | 0.00 | 95 | 1010.6 |
| 20260506102508 | 21 | 238 | 1.6 | 8.0 | 0.00 | 0.00 | 0.00 | 95 | 1010.6 |
| 20260506102009 | 21 | 170 | 1.6 | 6.4 | 0.00 | 0.00 | 0.00 | 95 | 1010.6 |
| 20260506101528 | 21 | 295 | 0.0 | 9.7 | 0.00 | 0.00 | 0.00 | 95 | 1010.5 |
| 20260506101010 | 21 | 146 | 3.2 | 9.7 | 0.00 | 0.00 | 0.00 | 95 | 1010.4 |
| 20260506100507 | 21 | 133 | 1.6 | 9.7 | 0.00 | 0.00 | 0.00 | 95 | 1010.3 |
| 20260506100031 | 21 | 240 | 1.6 | 9.7 | 0.00 | 0.00 | 0.00 | 95 | 1010.2 |
| 20260506095507 | 21 | 211 | 1.6 | 8.0 | 0.00 | 0.00 | 0.00 | 95 | 1010.2 |
| 20260506095011 | 21 | 234 | 0.0 | 6.4 | 0.00 | 0.00 | 0.00 | 95 | 1010.2 |
| 20260506094508 | 21 | 247 | 3.2 | 9.7 | 0.00 | 0.00 | 0.00 | 95 | 1010.2 |
| 20260506094003 | 21 | 157 | 1.6 | 9.7 | 0.00 | 0.00 | 0.00 | 95 | 1010.3 |
| 20260506093507 | 21 | 231 | 1.6 | 14.5 | 0.00 | 0.00 | 0.00 | 95 | 1010.2 |
| 20260506093018 | 21 | 212 | 3.2 | 14.5 | 0.00 | 0.00 | 0.00 | 95 | 1010.2 |
| 20260506092509 | 21 | 103 | 4.8 | 14.5 | 0.00 | 0.00 | 0.00 | 95 | 1010.2 |
| 20260506092007 | 21 | 122 | 1.6 | 8.0 | 0.00 | 0.00 | 0.00 | 95 | 1010.1 |
| 20260506091519 | 21 | 141 | 1.6 | 8.0 | 0.00 | 0.00 | 0.00 | 95 | 1010.1 |
| 20260506091007 | 21 | 246 | 1.6 | 9.7 | 0.00 | 0.00 | 0.00 | 94 | 1010.1 |
| 20260506090506 | 21 | 110 | 3.2 | 11.3 | 0.00 | 0.00 | 0.00 | 94 | 1010.1 |
| 20260506090021 | 21 | 195 | 3.2 | 11.3 | 0.00 | 0.00 | 0.00 | 94 | 1010.0 |
| 20260506085507 | 21 | 110 | 3.2 | 12.9 | 0.00 | 0.00 | 0.00 | 94 | 1009.9 |
| 20260506085007 | 21 | 145 | 6.4 | 12.9 | 0.00 | 0.00 | 0.00 | 94 | 1009.8 |
| 20260506084535 | 21 | 41 | 4.8 | 12.9 | 0.00 | 0.00 | 0.00 | 94 | 1009.7 |
| 20260506084010 | 21 | 120 | 4.8 | 9.7 | 0.00 | 0.00 | 0.00 | 94 | 1009.7 |
| 20260506083514 | 21 | 155 | 1.6 | 9.7 | 0.00 | 0.00 | 0.00 | 94 | 1009.8 |
| 20260506083013 | 21 | 164 | 4.8 | 9.7 | 0.00 | 0.00 | 0.00 | 94 | 1009.8 |
| 20260506082505 | 21 | 175 | 4.8 | 12.9 | 0.00 | 0.00 | 0.00 | 93 | 1009.7 |
| 20260506082003 | 21 | 223 | 4.8 | 12.9 | 0.00 | 0.00 | 0.00 | 93 | 1009.7 |
| 20260506081517 | 21 | 166 | 3.2 | 11.3 | 0.00 | 0.00 | 0.00 | 93 | 1009.8 |
| 20260506081010 | 21 | 188 | 3.2 | 11.3 | 0.00 | 0.00 | 0.00 | 93 | 1009.8 |
| 20260506080508 | 22 | 143 | 3.2 | 9.7 | 0.00 | 0.00 | 0.00 | 93 | 1009.9 |
| 20260506073511 | 22 | 50 | 4.8 | 11.3 | 0.00 | 0.00 | 0.00 | 92 | 1010.0 |
| 20260506073026 | 22 | 111 | 4.8 | 14.5 | 0.00 | 0.00 | 0.00 | 92 | 1010.1 |
| 20260506072512 | 22 | 154 | 4.8 | 14.5 | 0.00 | 0.00 | 0.00 | 92 | 1010.2 |
| 20260506072012 | 22 | 145 | 4.8 | 12.9 | 0.00 | 0.00 | 0.00 | 92 | 1010.2 |
| 20260506071514 | 22 | 120 | 3.2 | 12.9 | 0.00 | 0.00 | 0.00 | 92 | 1010.2 |
| 20260506071007 | 22 | 65 | 4.8 | 14.5 | 0.00 | 0.00 | 0.00 | 92 | 1010.2 |
| 20260506070506 | 22 | 145 | 4.8 | 14.5 | 0.00 | 0.00 | 0.00 | 92 | 1010.2 |
| 20260506062509 | 22 | 174 | 3.2 | 14.5 | 0.00 | 0.00 | 0.00 | 92 | 1010.5 |
| 20260506062012 | 22 | 221 | 3.2 | 14.5 | 0.00 | 0.00 | 0.00 | 92 | 1010.4 |
| 20260506061529 | 22 | 185 | 4.8 | 11.3 | 0.00 | 0.00 | 0.00 | 92 | 1010.4 |
| 20260506061011 | 22 | 131 | 4.8 | 9.7 | 0.00 | 0.00 | 0.00 | 92 | 1010.3 |
| 20260506060510 | 22 | 162 | 3.2 | 9.7 | 0.00 | 0.00 | 0.00 | 92 | 1010.3 |
| 20260506051011 | 22 | 156 | 3.2 | 9.7 | 0.00 | 0.00 | 0.00 | 91 | 1010.3 |
| 20260506050515 | 22 | 139 | 3.2 | 9.7 | 0.00 | 0.00 | 0.00 | 91 | 1010.4 |
| 20260506045013 | 22 | 121 | 0.0 | 4.8 | 0.00 | 0.00 | 0.00 | 90 | 1010.5 |
| 20260506044519 | 22 | 252 | 0.0 | 3.2 | 0.00 | 0.00 | 0.00 | 90 | 1010.5 |
| 20260506044007 | 22 | 87 | 0.0 | 3.2 | 0.00 | 0.00 | 0.00 | 90 | 1010.6 |
| 20260506043509 | 22 | 85 | 0.0 | 3.2 | 0.00 | 0.00 | 0.00 | 90 | 1010.6 |
| 20260506043024 | 22 | 142 | 0.0 | 3.2 | 0.00 | 0.00 | 0.00 | 90 | 1010.5 |
| 20260506042506 | 22 | 185 | 0.0 | 3.2 | 0.00 | 0.00 | 0.00 | 89 | 1010.5 |
| 20260506042010 | 22 | 94 | 0.0 | 3.2 | 0.00 | 0.00 | 0.00 | 89 | 1010.5 |
| 20260506041525 | 22 | 108 | 0.0 | 3.2 | 0.00 | 0.00 | 0.00 | 89 | 1010.3 |
| 20260506041009 | 22 | 122 | 0.0 | 3.2 | 0.00 | 0.00 | 0.00 | 88 | 1010.3 |
| 20260506040509 | 22 | 136 | 0.0 | 3.2 | 0.00 | 0.00 | 0.00 | 88 | 1010.2 |
| 20260506040036 | 22 | 117 | 0.0 | 3.2 | 0.00 | 0.00 | 0.00 | 87 | 1010.1 |
| 20260506035509 | 22 | 147 | 0.0 | 3.2 | 0.00 | 0.00 | 0.00 | 87 | 1010.2 |
| 20260506035010 | 22 | 181 | 0.0 | 3.2 | 0.00 | 0.00 | 0.00 | 87 | 1010.2 |
| 20260506034529 | 22 | 143 | 0.0 | 3.2 | 0.00 | 0.00 | 0.00 | 87 | 1010.1 |
| 20260506034011 | 22 | 129 | 0.0 | 3.2 | 0.00 | 0.00 | 0.00 | 86 | 1010.1 |